Flag for Canada Weather past 2 weeks in Thunder Bay, Ontario, Canada

Now
70 °F

Broken clouds.


Feels Like: 70 °F
Forecast: 49 / 71 °F
Wind: 6 mph from Northwest

Location: Thunder Bay

Current Time: Jul 30, 2014 at 3:40:04 PM

Latest Report: Jul 30, 2014 at 3:00 PM


Visibility: 20 mi

Pressure: 29.93 "Hg

Humidity: 73%

Dew point: 61 °F

Location of Thunder BayLocation

Historic Weather in Thunder Bay — Graph

°F

Thunder Bay temperature yesterday

Maximum temperature yesterday: 72 °F (at 7:00 PM)
Minimum temperature yesterday: 54 °F (at 11:00 PM)
Average temperature yesterday: 62 °F

Past Weeks' High & Low Weather Summary

 TemperatureHumidityPressure
High90 °F (Jul 21, 3:00 PM)100% (Jul 17, 5:00 AM)30.25 "Hg (Jul 17, 5:00 AM)
Low45 °F (Jul 30, 7:00 AM)30% (Jul 16, 7:00 PM)29.64 "Hg (Jul 22, 11:00 AM)
Average63 °F78%29.93 "Hg
* Reported Jul 15 2:00 PM — Jul 30 2:00 PM, Thunder Bay, Weather by CustomWeather, © 2014

Note: Actual official high and low records may vary slightly from our data, if they occured in-between our weather recording intervals... More about our weather records

Advertising

Thunder Bay weather history for previous 24 hours

 ConditionsComfort  
Time TempWeatherWind HumidityBarometerVisibility
2:00 PM
Jul 30
63 °FSprinkles. Partly sunny.2 mph88%29.95 "Hg20 mi
1:48 PM61 °FLight rain. Partly sunny.6 mph94%29.96 "Hg20 mi
1:00 PM66 °FThunderstorms. More clouds than sun.2 mph78%29.95 "Hg20 mi
12:00 PM64 °FMore clouds than sun.2 mph78%29.97 "Hg20 mi
11:00 AM63 °FMostly cloudy.7 mph77%29.99 "Hg20 mi
10:00 AM59 °FMore clouds than sun.6 mph77%30.01 "Hg20 mi
9:00 AM54 °FMostly cloudy.6 mph88%30.03 "Hg20 mi
8:00 AM48 °FScattered clouds.5 mph94%30.04 "Hg20 mi
7:00 AM45 °FPassing clouds.5 mph100%30.04 "Hg20 mi
6:00 AM46 °FPassing clouds.5 mph93%30.04 "Hg20 mi
5:00 AM46 °FClear.6 mph93%30.04 "Hg15 mi
4:00 AM46 °FClear.5 mph100%30.04 "Hg15 mi
3:00 AM46 °FClear.5 mph93%30.05 "Hg15 mi
2:00 AM50 °FClear.3 mph94%30.06 "Hg15 mi
1:00 AM50 °FClear.No wind94%30.06 "Hg15 mi
12:00 AM52 °FClear.5 mph88%30.05 "Hg15 mi
11:00 PM
Jul 29
54 °FPassing clouds.3 mph82%30.04 "Hg15 mi
10:00 PM59 °FPassing clouds.2 mph72%30.04 "Hg20 mi
9:00 PM64 °FPassing clouds.3 mph60%30.02 "Hg20 mi
8:00 PM68 °FPassing clouds.9 mph60%30.00 "Hg20 mi
7:00 PM72 °FScattered clouds.3 mph61%29.98 "Hg20 mi
6:00 PM68 °FBroken clouds.5 mph73%29.98 "Hg20 mi
5:00 PM70 °FPartly sunny.8 mph73%29.98 "Hg20 mi
4:00 PM68 °FScattered showers. Broken clouds.5 mph78%29.98 "Hg20 mi
3:00 PM68 °FPartly sunny.7 mph78%29.98 "Hg20 mi
Weather by CustomWeather, © 2014

See weather overviewHow to use our weather pages